Regional Weather Roundup
Issued by NWS Upton, NY

Current Version | Previous Version | Text Only | Print | Product List | Glossary Off
Versions: 1 2 3 4 5 6 7 8 9 10 11 12 13 14 15 16 17 18 19 20 21 22 23 24 25 26 27 28 29 30 31 32 33 34 35 36 37 38 39 40 41 42 43 44 45 46 47 48 49 50
000 ASUS41 KOKX 230205 RWROKX REGIONAL WEATHER ROUNDUP NATIONAL WEATHER SERVICE NEW YORK NY 900 PM EST SAT NOV 22 2014 NOTE: "FAIR" INDICATES FEW OR NO CLOUDS BELOW 12,000 FEET WITH NO SIGNIFICANT WEATHER AND/OR OBSTRUCTIONS TO VISIBILITY. NYZ071-072-176-178-NJZ106-104-230300- NEW YORK CITY METRO AREA CITY SKY/WX TMP DP RH WIND PRES REMARKS CENTRAL PARK MOCLDY 43 18 36 MISG 30.24S LAGUARDIA APRT MOCLDY 44 19 36 SW14G22 30.22F KENNEDY INTL MOCLDY 44 22 41 SW17G24 30.24F NEWARK/LIBERTY CLOUDY 42 19 39 SW13 30.23S BRNX BOT. GARD N/A N/A N/A N/A SW7 30.23S TETERBORO MOCLDY 43 17 35 SW9 30.22S $$ NYZ177-179-078>081-230300- LONG ISLAND NEW YORK CITY SKY/WX TMP DP RH WIND PRES REMARKS FARMINGDALE MOCLDY 44 23 43 SW10 30.23F ISLIP CLOUDY 44 24 45 W17 30.22S SHIRLEY CLOUDY 44 26 49 SW10G20 30.22F WESTHAMPTON CLOUDY 45 28 51 SW17G26 30.23S MONTAUK POINT N/A 46 32 58 SW10G20 30.21F $$ NYZ052-065-067-230300- HUDSON VALLEY CITY SKY/WX TMP DP RH WIND PRES REMARKS WHITE PLAINS CLOUDY 41 16 36 W7 30.20S NEWBURGH CLOUDY 39 18 41 W9 30.17F WCI 33 MONTGOMERY CLOUDY 39 16 39 S9 30.16F WCI 33 POUGHKEEPSIE CLOUDY 43 15 32 SW9G17 30.18S ALBANY CLOUDY 39 22 50 S10 30.08F WCI 32 $$ NJZ001-105-106-008-010-013-015-019>022-104-230300- NEW JERSEY CITY SKY/WX TMP DP RH WIND PRES REMARKS NEWARK/LIBERTY CLOUDY 42 19 39 SW13 30.23S TETERBORO MOCLDY 43 17 35 SW9 30.22S CALDWELL MOCLDY 41 17 38 VRB6 30.22F MORRISTOWN NOT AVBL SOMERVILLE MOCLDY 41 19 41 CALM 30.22F SUSSEX CLOUDY 39 17 41 SW8 30.19S WCI 33 ANDOVER N/A 38 19 46 VRB6 30.20F WCI 33 TRENTON CLOUDY 43 19 38 SW9 30.25F MILLVILLE PTCLDY 40 25 55 SW5 30.29F ATLANTIC CITY CLOUDY 42 24 49 SW8 30.30F WRIGHTSTOWN CLOUDY 41 23 47 SW9 30.24F TOMS RIVER CLOUDY 43 21 42 SW6 30.28F BELMAR MOCLDY 41 19 42 SW13 30.25S $$ PAZ047>061-062-071-230300- EASTERN PENNSYLVANIA CITY SKY/WX TMP DP RH WIND PRES REMARKS PHILADELPHIA MOCLDY 43 23 45 SW12 30.28F ALLENTOWN CLOUDY 41 19 41 W6 30.23F SCRANTON CLOUDY 38 18 44 SW6 30.17S WCI 33 $$ CTZ002-004>006-009-010-012-RIZ004-006-007-MAZ004-011-015-230300- SOUTHERN NEW ENGLAND IN CT CITY SKY/WX TMP DP RH WIND PRES REMARKS BRADLEY INTL CLOUDY 42 16 34 S14 30.12F HARTFORD MOCLDY 42 18 37 S10 30.17S DANBURY CLOUDY 41 17 38 SW8 30.18F WTRBRY/OXFORD NOT AVBL BRIDGEPORT CLOUDY 45 28 51 SW18G25 30.19F MERIDEN CLOUDY 42 18 37 SW8 30.18S NEW HAVEN CLOUDY 47 26 44 SW15G22 30.20S CHESTER CLOUDY 43 25 49 SW10G18 30.17F GROTON CLOUDY 45 29 53 W21G30 30.17F WILLIMANTIC CLOUDY 42 21 43 SW5 30.15F IN RI CITY SKY/WX TMP DP RH WIND PRES REMARKS PROVIDENCE MOCLDY 43 23 45 SW15G23 30.14S BLOCK ISLAND CLOUDY 46 30 53 W23G33 30.18F WESTERLY CLOUDY 45 28 51 SW14G22 30.17F IN MA CITY SKY/WX TMP DP RH WIND PRES REMARKS BOSTON MOCLDY 40 20 44 SW17G25 30.09R WCI 31 WORCESTER PTCLDY 37 15 40 W26G38 30.04F WCI 25 WESTFIELD MOCLDY 40 15 36 S13 30.09F WCI 32 PROVINCETOWN MOCLDY 45 30 57 SW29G38 30.09F NANTUCKET CLOUDY 50 39 66 SW30G40 30.17F $$ ANZ330-335-338-340-345-350-353-355-230300- COASTAL MARINE OBSERVATIONS STATION/POSITION TIME SKY/WX TEMP WIND PRES VSBY WAVE AIR SEA DIR/SP/G HT/PER (UTC) (F) (DEG/KT/KT) (MB) (MI) (FT/S) NY HARB ENTRANCE 0200 46 56 240/ 21/ 25 1023.9 4/ 6 4S FIRE IS 0200 52 N/A 7/ 6 20S FIRE ISLAND 0200 49 54 240/ 23/ 29 1023.6 7/ 6 23SW MTP 0200 N/A 10/ 8 HUDSON CANYON 0200 52 58 240/ 25/ 29 1024.6 9/ 7 EXECUTION ROCKS 0200 45 47 240/ 17/ 23 N/A WESTERN LI SOUND 0200 46 230/ 19/ 23 N/A 1/ 3 CENTRAL LI SOUND 0100 45 50 230/ 19/ 23 N/A 4/ 5 EASTERN LI SOUND 0100 47 52 230/ 21/ 29 N/A ROBBINS REEF 0200 43 240/ 15/ 18 1022.3 $$ >>>>>>>>>>>>>>>>>>>>>>>>>>>> KEY <<<<<<<<<<<<<<<<<<<<<<<<<<< > < > SKY/WX - SKY CONDITION/PRESENT WEATHER < > TMP - TEMPERATURE IN FAHRENHEIT < > DP - DEWPOINT IN FAHRENHEIT < > RH - RELATIVE HUMIDITY IN PERCENT < > WIND - DIRECTION AND SPEED IN MPH < > PRES - MEAN SEA LEVEL PRESSURE IN INCHES OF HG < > WCI - WIND CHILL INDEX < > VSB - VISIBILITY IN MILES < > HX - HEAT INDEX < > TC - TEMPERATURE IN CELSIUS < > VRB - VARIABLE WIND DIRECTION < > < >>>>>>>>>>>>>>>>>>>>>>>>>>>> KEY <<<<<<<<<<<<<<<<<<<<<<<<<<<

USA.gov is the U.S. government's official web portal to all federal, state and local government web resources and services.